Temperature
17 17 17 17 17 17 17 17 17 17 17 17 17 17 17 17 17 17 17 17 17 17 17 17 17 17 17 16 16 16 16 16 16 16 16 16 16 16 16 16 16 15 15
17 17 17 17 17 17 17 17 17 17 17 17 17 17 17 17 17 16 17 17 17 17 17 17 17 17 17 16 16 16 16 16 16 16 16 16 16 16 16 16 15 15 15
17 17 17 17 17 17 17 17 17 17 17 17 17 17 17 17 17 16 17 17 17 17 17 17 17 17 16 16 16 16 16 16 16 16 16 16 16 16 16 15 15 15 15
17 17 17 17 17 17 17 17 17 17 17 17 17 17 17 17 17 16 17 17 17 17 17 17 17 17 16 16 16 16 16 16 16 16 16 16 16 16 16 15 15 15 15
17 17 17 17 17 17 17 17 17 17 17 17 17 17 17 17 17 17 17 17 17 16 17 17 17 17 17 16 16 16 16 16 16 16 16 16 16 16 16 15 15 15 15
17 17 17 17 17 17 17 17 17 17 17 17 18 18 17 17 17 17 17 17 17 17 17 16 17 17 17 17 16 16 16 16 16 16 16 16 16 16 16 15 15 15 15
17 17 17 17 17 17 17 17 17 17 17 17 17 18 18 18 17 17 17 17 17 17 17 17 17 16 16 17 17 16 16 16 16 16 16 16 16 16 15 15 15 15 15
17 17 17 17 17 17 17 17 17 17 17 17 17 18 18 18 18 18 17 17 17 17 17 17 17 16 16 16 16 16 16 16 16 16 16 16 16 16 15 15 15 15 15
17 17 17 17 17 17 17 17 17 17 17 17 17 18 18 19 18 18 17 17 17 17 17 17 17 17 16 16 16 16 16 16 16 16 16 16 15 15 15 15 15 15 15
18 17 17 17 17 17 17 17 17 17 17 17 17 17 17 18 18 18 18 18 17 17 17 17 17 17 16 16 16 16 16 16 16 16 16 16 15 15 15 15 15 15 14
17 17 18 17 18 17 17 17 17 17 17 17 17 17 17 17 17 17 17 17 17 17 17 17 17 17 16 16 16 16 16 16 16 16 16 16 15 15 15 15 15 14 14
17 17 17 17 17 17 17 17 17 17 17 17 17 17 17 17 17 17 17 17 17 17 17 16 16 16 16 16 16 16 16 16 16 16 15 15 15 15 15 15 14 14 14
17 17 17 18 17 18 17 17 17 17 17 17 17 17 17 17 17 17 17 17 16 16 16 16 16 16 16 16 16 15 15 16 16 15 15 15 15 15 14 14 14 14 14
17 17 17 17 17 17 17 17 17 17 17 17 17 17 17 17 17 17 17 16 16 16 16 16 15 15 15 15 15 15 15 15 15 15 15 15 14 14 14 14 14 14 13
17 17 17 17 17 17 17 17 17 17 17 17 17 17 17 17 16 16 16 16 16 16 15 16 15 15 15 15 15 15 15 15 15 15 14 14 14 14 14 13 13 13 13
18 17 17 17 17 17 17 17 17 17 17 17 17 17 17 16 16 16 16 16 16 16 15 15 15 15 14 14 14 14 14 14 14 14 14 14 14 14 13 13 13 13 13
18 17 17 17 17 17 17 17 17 16 16 16 16 16 16 16 16 16 16 16 15 15 15 15 15 14 14 14 14 14 14 14 14 13 13 13 13 13 13 13 12 12 12
17 17 17 17 17 17 17 17 16 16 16 16 16 16 16 16 16 16 16 15 15 15 15 15 14 14 14 14 13 13 13 13 13 13 13 13 12 12 12 12 12 12 12
17 17 17 17 17 17 17 16 16 16 16 16 16 16 16 16 15 15 15 15 15 15 15 14 14 14 13 13 13 12 12 12 12 12 12 12 12 11 11 11 11 11 11
17 17 17 17 16 16 16 16 16 16 16 16 16 15 15 15 15 15 15 15 15 14 14 14 14 13 13 13 12 12 12 11 11 11 11 11 11 11 11 11 11 11 10
17 17 17 17 16 16 16 16 16 15 15 15 15 15 15 15 15 15 14 14 14 14 14 14 13 13 13 12 12 12 11 11 11 10 10 10 10 10 10 10 10 10 10
17 17 17 16 16 16 16 16 16 15 15 15 15 15 14 15 15 15 14 14 14 14 14 13 13 13 13 12 12 12 11 11 10 10 10 10 9 9 9 9 9 9 9
17 17 16 16 16 16 16 16 15 15 15 15 14 14 14 14 14 14 14 14 14 13 13 13 13 13 12 12 12 11 11 11 10 10 9 9 9 9 8 8 8 8 8
17 17 16 16 16 16 16 15 15 15 14 14 14 14 14 14 14 14 13 13 13 13 13 13 12 12 12 12 11 11 11 10 10 9 9 9 8 8 8 8 8 8 8
17 16 16 16 15 15 15 15 15 14 14 14 14 14 13 13 13 13 13 13 13 13 12 12 12 12 12 11 11 11 10 10 10 9 9 9 8 8 8 8 8 8 8
16 16 16 15 15 15 15 15 14 14 14 13 13 13 13 13 13 13 12 12 12 12 12 12 12 11 11 11 10 10 10 10 10 9 9 8 8 8 8 8 7 7 7
Wind_Speed
3 4 3 3 3 4 5 4 4 4 4 4 3 4 3 2 2 2 6 8 7 7 7 8 9 9 9 10 10 10 9 9 8 8 9 9 9 9 9 9 8 8 8
4 4 4 3 3 3 3 3 4 4 3 3 3 3 3 3 3 3 4 8 9 8 8 8 9 10 10 10 11 11 10 10 10 10 10 10 10 10 10 10 9 9 9
5 4 3 3 3 3 3 3 3 3 4 4 3 3 3 2 2 3 3 4 7 10 9 8 9 10 11 11 11 11 11 11 11 11 11 11 11 11 11 11 11 10 10
5 4 3 3 3 3 4 3 3 3 3 3 3 3 2 3 3 4 4 4 4 5 9 10 9 10 11 11 11 12 12 12 12 12 12 12 12 12 12 12 12 12 11
5 5 3 3 4 4 3 4 3 3 3 3 3 3 3 3 3 4 4 4 4 4 5 9 11 11 11 11 12 12 12 13 13 13 13 13 13 13 14 14 13 13 13
6 5 5 4 5 4 3 3 2 3 3 3 4 2 3 3 4 4 5 4 5 6 5 5 8 10 12 11 11 12 12 12 13 13 14 14 13 13 14 14 14 14 13
6 5 5 4 5 4 4 5 4 5 5 3 3 3 4 5 4 4 4 4 4 5 5 5 6 5 7 14 13 12 12 12 13 14 14 14 14 14 14 15 15 15 14
6 6 5 5 5 4 5 5 4 4 4 4 4 4 4 4 4 4 4 4 4 4 4 6 5 5 6 5 8 12 12 12 11 12 12 13 14 14 14 15 15 14 13
7 6 5 6 5 6 5 5 6 6 5 5 5 4 3 3 2 2 3 3 3 3 3 3 4 5 6 5 5 10 12 12 11 11 11 11 13 13 14 14 14 14 13
6 7 6 6 6 6 4 6 6 5 6 6 5 5 5 4 3 2 3 3 3 3 3 3 3 3 4 4 4 2 8 10 10 9 10 10 11 12 12 13 13 13 12
6 6 6 5 5 6 5 5 4 6 6 7 6 5 5 5 6 5 4 3 3 2 2 2 2 2 2 3 3 3 6 7 7 7 7 8 9 10 11 12 13 13 12
4 5 5 4 5 5 5 5 5 7 6 6 6 5 5 5 5 5 5 5 4 3 1 1 1 1 1 1 2 4 6 6 6 6 6 7 7 8 8 9 9 9 9
4 5 4 4 4 4 5 5 5 6 6 6 7 6 6 6 5 5 5 5 4 3 2 2 1 1 1 1 2 5 5 5 5 6 6 6 6 6 6 7 7 7 7
4 3 4 3 4 4 5 4 5 5 5 6 7 6 5 5 5 5 5 5 5 4 3 3 1 0 1 1 3 4 4 7 7 6 6 6 6 6 6 6 7 6 6
4 4 4 4 4 4 4 4 4 4 4 5 5 5 5 4 5 4 4 5 5 5 4 3 2 1 2 2 3 3 3 7 7 7 7 7 7 7 7 6 7 7 7
4 4 4 4 4 4 4 4 4 3 4 4 3 3 4 4 3 4 4 5 6 5 4 3 1 1 2 3 4 4 5 8 8 8 8 8 8 8 8 7 7 7 7
4 4 3 3 3 3 3 3 3 3 3 3 3 3 3 3 3 3 4 4 4 4 4 3 1 1 2 2 3 4 4 5 7 9 9 8 8 8 8 8 8 7 7
4 4 3 3 3 2 2 3 3 3 3 4 3 3 3 3 3 3 3 3 3 3 4 4 2 2 1 3 3 3 4 6 8 10 10 10 10 9 9 9 9 9 8
4 3 3 3 2 2 2 2 2 2 2 2 2 2 2 2 3 2 3 3 2 2 3 4 3 2 2 3 3 4 5 6 7 9 10 10 10 10 10 10 10 10 10
4 4 3 2 2 1 1 1 1 1 1 1 1 1 1 1 1 1 1 1 2 2 3 4 4 3 3 3 3 4 4 3 4 6 7 9 10 10 10 10 10 10 10
4 3 3 3 2 2 0 1 1 1 1 0 0 1 1 3 3 1 1 1 2 3 3 3 4 4 4 5 4 4 4 4 3 3 4 5 6 7 8 8 9 9 9
4 3 3 2 2 1 4 3 2 1 0 1 1 1 2 3 4 3 3 2 1 3 3 3 3 4 5 5 5 5 5 5 3 3 3 3 3 4 5 6 8 9 8
4 4 3 3 3 4 4 2 2 1 1 1 1 1 1 2 2 2 3 3 2 2 1 3 3 3 4 5 6 6 5 4 3 4 3 3 3 3 4 6 9 8 8
5 4 3 3 3 4 4 2 1 1 2 2 1 1 1 1 2 2 2 2 3 3 2 1 1 2 3 4 5 5 5 4 3 3 3 2 3 2 3 5 9 8 8
5 4 4 3 3 4 4 2 2 2 2 2 2 2 1 2 4 2 2 3 3 3 6 6 6 6 7 6 6 5 6 5 3 3 3 2 3 3 3 4 8 10 9
5 5 4 4 3 3 4 2 3 2 2 2 2 2 4 3 3 2 1 3 3 3 3 5 5 6 6 7 5 4 5 5 3 3 4 4 4 4 4 4 6 8 9
Wind_Direction
148 146 142 154 158 144 156 162 147 143 159 162 158 147 141 132 143 140 133 149 167 181 185 184 187 191 193 191 192 192 191 189 188 190 191 190 191 192 190 190 191 190 188
156 164 162 169 162 165 152 158 152 161 173 158 163 156 177 166 160 178 159 160 174 188 193 193 195 196 199 199 200 200 198 198 199 201 201 201 203 202 201 200 199 197 197
168 181 167 182 176 173 170 189 174 177 181 177 177 179 189 192 181 194 190 183 176 184 192 201 204 203 205 206 207 206 206 207 209 209 209 210 210 210 208 208 207 205 205
188 199 186 185 182 200 198 188 207 201 195 192 188 200 191 187 201 208 210 206 200 189 185 194 206 210 212 213 213 213 213 213 214 214 215 218 217 217 215 214 213 211 209
199 209 206 179 200 208 213 219 188 217 202 204 208 207 216 210 207 214 216 219 211 218 200 180 198 212 217 219 219 219 220 220 220 220 222 223 223 223 220 218 218 216 215
205 216 212 208 219 214 219 225 220 229 228 222 237 220 235 227 222 220 223 213 205 214 219 206 198 202 211 218 222 223 224 225 222 221 223 225 224 225 224 221 219 218 219
208 222 236 209 226 221 227 226 226 223 226 224 241 236 231 229 223 220 228 230 211 212 218 221 228 222 207 208 215 221 224 227 225 224 225 225 225 227 227 225 222 221 222
220 220 226 230 225 225 225 228 226 243 242 222 241 249 241 221 210 218 218 221 231 219 220 220 222 224 240 208 199 208 220 226 225 223 224 226 225 225 225 224 223 222 222
222 235 229 238 235 235 227 228 232 234 240 237 239 251 259 250 237 202 210 222 228 237 238 230 227 228 234 235 219 201 209 218 222 222 222 222 221 221 222 223 222 218 217
227 228 233 236 240 246 239 238 233 239 242 244 233 241 258 279 265 241 223 207 210 230 243 244 237 232 238 237 225 193 194 209 216 220 223 222 218 217 218 218 216 214 212
227 228 228 234 235 244 245 254 253 247 241 245 242 235 239 241 245 251 252 245 235 238 230 239 252 258 237 227 213 191 172 193 205 212 212 213 213 215 215 217 216 215 212
224 225 229 233 239 246 241 241 245 241 246 246 250 245 242 244 242 246 251 250 249 250 232 251 261 272 257 225 197 134 152 176 190 196 199 203 206 209 210 207 206 205 203
223 219 230 231 239 241 243 241 239 246 244 242 246 250 249 251 252 249 248 256 259 258 242 250 261 240 198 167 117 119 138 158 171 180 191 194 191 191 190 186 187 187 185
239 231 225 231 237 237 238 239 243 244 245 246 248 253 254 252 251 249 252 250 253 254 244 239 257 124 86 80 82 109 122 133 139 144 150 154 153 151 153 160 159 155 156
233 222 223 227 235 236 237 236 243 248 253 255 253 246 251 248 245 249 249 245 248 252 256 241 221 170 123 108 101 111 110 106 116 121 125 128 132 136 136 141 148 151 154
232 223 219 220 227 231 229 232 238 246 253 260 266 264 258 257 253 246 244 246 243 245 249 256 239 181 121 116 112 112 106 102 105 114 121 127 130 129 129 129 132 138 141
214 212 213 219 225 232 236 233 243 245 254 262 262 249 245 257 256 254 249 244 241 233 225 248 245 155 148 141 115 117 116 111 102 106 110 116 119 121 123 124 126 129 133
204 200 207 215 222 224 232 244 255 255 259 266 269 264 256 245 246 257 253 245 239 224 209 209 209 175 162 143 135 133 112 100 99 102 106 103 105 107 111 114 115 118 121
192 191 196 200 204 217 230 246 267 271 260 267 273 270 270 260 253 250 252 243 216 198 191 188 194 174 173 153 137 125 111 112 109 112 111 109 106 106 106 107 109 111 115
182 182 183 185 190 192 223 253 265 271 262 271 282 288 291 295 296 267 234 213 185 178 177 180 172 171 166 162 157 146 138 135 125 114 108 111 114 114 111 109 110 111 114
174 170 173 176 182 191 221 284 253 231 240 271 39 22 53 59 40 351 275 202 186 191 183 176 179 179 170 172 178 173 150 129 111 129 128 125 127 122 122 123 122 120 120
164 165 173 175 167 132 74 33 320 205 128 85 72 60 98 94 82 77 59 59 163 194 192 194 199 192 186 184 170 166 159 155 153 153 140 132 140 131 133 134 132 135 137
164 162 160 151 134 99 92 78 349 305 118 87 68 39 43 68 76 99 110 123 102 105 179 213 199 199 184 175 173 173 172 173 156 155 156 149 154 140 140 132 144 156 159
164 161 156 148 136 114 112 113 283 172 98 84 66 55 61 74 55 53 109 104 90 80 86 138 155 174 159 160 170 162 148 131 122 146 176 177 166 162 157 147 160 174 178
166 159 152 149 146 130 124 139 257 160 127 106 79 55 44 85 61 12 126 117 106 95 84 84 85 95 106 125 145 149 152 156 156 173 192 186 173 173 178 174 166 179 187
165 160 150 153 154 143 131 155 253 194 158 149 123 110 77 64 71 9 150 140 133 119 113 113 112 122 126 133 153 175 176 177 169 175 179 191 184 186 187 191 182 182 190
Height
1570 1571 1571 1572 1574 1575 1575 1576 1577 1577 1578 1579 1580 1580 1581 1581 1582 1582 1582 1581 1581 1582 1582 1583 1583 1584 1585 1586 1587 1588 1589 1590 1590 1591 1592 1593 1593 1594 1595 1595 1596 1597 1597
1570 1571 1572 1573 1574 1575 1576 1576 1577 1577 1578 1579 1580 1580 1581 1581 1581 1581 1582 1581 1581 1581 1582 1582 1583 1583 1584 1585 1586 1587 1588 1589 1589 1590 1591 1592 1592 1593 1594 1594 1595 1595 1596
1570 1571 1572 1573 1574 1575 1575 1576 1577 1578 1578 1579 1579 1580 1580 1580 1581 1581 1581 1582 1581 1581 1581 1581 1582 1582 1583 1584 1585 1586 1587 1587 1588 1589 1589 1590 1591 1591 1592 1593 1594 1594 1595
1570 1570 1572 1573 1573 1575 1576 1576 1577 1578 1578 1578 1579 1579 1579 1579 1579 1580 1580 1580 1581 1581 1580 1580 1580 1581 1582 1582 1583 1584 1585 1585 1586 1587 1587 1588 1589 1589 1590 1591 1592 1592 1593
1569 1570 1571 1572 1573 1574 1575 1576 1576 1577 1577 1577 1578 1578 1578 1578 1578 1579 1579 1579 1579 1579 1580 1579 1579 1579 1580 1580 1581 1582 1582 1583 1584 1584 1585 1586 1587 1587 1588 1589 1589 1590 1591
1568 1569 1570 1571 1572 1573 1573 1574 1574 1574 1575 1576 1577 1577 1577 1577 1577 1577 1577 1577 1577 1577 1578 1578 1578 1578 1577 1578 1579 1579 1580 1581 1581 1582 1582 1583 1584 1584 1585 1586 1587 1588 1588
1567 1568 1570 1570 1570 1572 1572 1573 1573 1573 1574 1575 1575 1575 1575 1575 1575 1575 1575 1575 1576 1576 1576 1576 1576 1576 1576 1575 1576 1577 1577 1578 1578 1579 1579 1580 1581 1581 1582 1583 1584 1585 1585
1566 1568 1568 1568 1569 1569 1570 1570 1570 1571 1573 1573 1574 1574 1573 1574 1573 1573 1573 1573 1573 1574 1574 1574 1574 1573 1574 1574 1574 1574 1574 1575 1575 1576 1576 1577 1578 1578 1579 1580 1581 1581 1582
1564 1565 1566 1567 1567 1568 1568 1568 1568 1569 1570 1571 1571 1572 1572 1571 1571 1571 1570 1570 1570 1571 1571 1571 1571 1571 1571 1571 1571 1571 1571 1572 1572 1573 1573 1574 1574 1575 1576 1576 1577 1578 1578
1562 1563 1564 1564 1564 1565 1566 1566 1567 1567 1567 1568 1569 1568 1569 1569 1569 1569 1569 1568 1568 1568 1568 1569 1569 1568 1568 1568 1568 1568 1568 1569 1569 1569 1570 1571 1571 1572 1572 1573 1573 1574 1574
1560 1561 1561 1562 1562 1563 1563 1563 1564 1564 1565 1565 1566 1566 1566 1566 1566 1566 1566 1566 1566 1566 1565 1565 1566 1566 1566 1566 1565 1566 1565 1566 1566 1566 1567 1567 1568 1568 1569 1569 1570 1570 1571
1558 1559 1559 1559 1559 1560 1560 1560 1560 1561 1561 1561 1562 1562 1563 1563 1563 1563 1563 1563 1563 1563 1563 1562 1563 1563 1563 1563 1563 1563 1563 1563 1563 1563 1564 1564 1565 1565 1566 1566 1567 1567 1567
1556 1556 1557 1556 1557 1556 1557 1557 1557 1558 1558 1558 1558 1559 1559 1559 1559 1560 1560 1559 1560 1560 1560 1560 1560 1560 1560 1560 1560 1560 1560 1560 1560 1560 1560 1561 1561 1562 1563 1563 1564 1564 1564
1554 1554 1554 1554 1554 1554 1554 1554 1555 1555 1555 1555 1555 1555 1555 1555 1556 1556 1556 1557 1556 1556 1556 1557 1557 1557 1557 1557 1557 1557 1556 1556 1556 1557 1557 1557 1558 1558 1559 1560 1560 1561 1561
1551 1551 1551 1551 1552 1552 1552 1552 1552 1552 1552 1552 1552 1551 1551 1551 1551 1552 1552 1553 1554 1553 1553 1553 1554 1553 1554 1554 1554 1554 1554 1553 1553 1553 1554 1554 1554 1555 1556 1556 1557 1558 1558
1548 1548 1549 1549 1549 1549 1549 1549 1549 1549 1549 1549 1549 1548 1548 1548 1548 1548 1548 1549 1549 1550 1549 1550 1550 1550 1551 1551 1551 1551 1551 1551 1551 1551 1551 1551 1551 1552 1553 1553 1554 1555 1555
1546 1546 1546 1546 1546 1547 1547 1547 1547 1547 1547 1547 1546 1546 1545 1545 1545 1545 1545 1545 1546 1546 1546 1546 1547 1547 1548 1548 1548 1548 1548 1548 1548 1548 1548 1548 1549 1549 1550 1550 1551 1551 1552
1544 1544 1544 1544 1544 1545 1545 1545 1545 1545 1544 1544 1544 1543 1543 1543 1542 1542 1542 1542 1542 1542 1543 1542 1543 1544 1545 1545 1545 1546 1546 1546 1546 1546 1546 1546 1546 1547 1547 1548 1548 1549 1549
1541 1541 1542 1542 1542 1542 1542 1542 1542 1542 1542 1542 1541 1541 1541 1540 1540 1539 1539 1539 1539 1539 1539 1540 1540 1541 1542 1542 1543 1543 1543 1543 1544 1544 1544 1544 1545 1545 1546 1546 1546 1547 1547
1539 1539 1540 1540 1540 1540 1540 1540 1540 1540 1540 1540 1539 1539 1539 1538 1538 1537 1537 1537 1537 1537 1537 1537 1538 1538 1539 1540 1540 1541 1541 1542 1542 1543 1543 1543 1543 1544 1544 1544 1545 1545 1546
1538 1538 1538 1538 1538 1538 1538 1538 1538 1538 1538 1538 1538 1537 1537 1536 1536 1536 1536 1535 1535 1535 1535 1535 1535 1536 1536 1537 1538 1539 1539 1540 1540 1541 1542 1542 1542 1543 1543 1543 1543 1544 1544
1536 1536 1536 1536 1536 1537 1537 1537 1537 1537 1537 1536 1536 1536 1535 1535 1534 1534 1534 1533 1533 1533 1533 1533 1533 1534 1534 1535 1535 1536 1537 1538 1539 1540 1540 1541 1542 1542 1543 1543 1543 1543 1543
1534 1534 1534 1535 1535 1535 1535 1535 1535 1535 1535 1535 1535 1535 1535 1534 1533 1532 1532 1532 1531 1531 1531 1532 1531 1531 1532 1532 1533 1534 1535 1536 1537 1538 1539 1540 1541 1542 1542 1542 1542 1543 1543
1532 1533 1533 1533 1533 1533 1534 1534 1534 1534 1534 1534 1534 1533 1533 1532 1532 1531 1531 1531 1530 1530 1530 1530 1530 1530 1530 1530 1531 1533 1533 1534 1535 1537 1538 1539 1540 1541 1541 1541 1542 1542 1542
1530 1531 1531 1531 1532 1532 1532 1532 1533 1533 1533 1533 1533 1532 1532 1531 1531 1530 1530 1530 1529 1529 1529 1528 1528 1528 1529 1529 1530 1531 1532 1533 1534 1535 1536 1537 1538 1539 1540 1541 1541 1541 1542
1529 1529 1529 1529 1530 1530 1530 1531 1531 1532 1532 1532 1531 1531 1530 1530 1529 1529 1529 1529 1528 1528 1528 1527 1527 1527 1528 1528 1529 1530 1531 1532 1533 1534 1535 1536 1537 1538 1539 1540 1540 1540 1541